| time (UTC) | temp F | wind direction | speed MPH | gust MPH | rain 1hr in | rain 24hr in | rain mn in | humidity % | barometer mb |
| 20260504140903 | 60 | 270 | 7.0 | 9.0 | 0.00 | 0.00 | 0.00 | 44 | 1010.9 |
| 20260504130405 | 56 | 299 | 7.0 | 15.0 | 0.00 | 0.00 | 0.00 | 48 | 1011.4 |
| 20260504110403 | 44 | 269 | 5.0 | 6.0 | 0.00 | 0.00 | 0.00 | 69 | 1011.9 |
| 20260504100402 | 41 | 262 | 5.0 | 7.0 | 0.00 | 0.00 | 0.00 | 75 | 1011.4 |
| 20260504081903 | 42 | 268 | 3.0 | 6.0 | 0.00 | 0.00 | 0.00 | 70 | 1010.9 |
| 20260504081403 | 42 | 273 | 3.0 | 7.0 | 0.00 | 0.00 | 0.00 | 70 | 1010.9 |
| 20260504080904 | 42 | 277 | 3.0 | 5.0 | 0.00 | 0.00 | 0.00 | 71 | 1010.9 |
| 20260504080403 | 42 | 275 | 3.0 | 5.0 | 0.00 | 0.00 | 0.00 | 70 | 1010.9 |
| 20260504070403 | 42 | 271 | 3.0 | 5.0 | 0.00 | 0.00 | 0.00 | 71 | 1010.8 |
| 20260504050404 | 42 | 287 | 2.0 | 2.0 | 0.00 | 0.00 | 0.00 | 68 | 1010.9 |
| 20260504045404 | 42 | 266 | 1.0 | 2.0 | 0.00 | 0.00 | 0.00 | 68 | 1010.9 |
| 20260504044903 | 42 | 265 | 1.0 | 2.0 | 0.00 | 0.00 | 0.00 | 67 | 1010.9 |
| 20260504044403 | 42 | 279 | 1.0 | 1.0 | 0.00 | 0.00 | 0.00 | 66 | 1010.9 |
| 20260504043903 | 42 | 291 | 1.0 | 2.0 | 0.00 | 0.00 | 0.00 | 66 | 1010.9 |
| 20260504042403 | 42 | 293 | 2.0 | 2.0 | 0.00 | 0.00 | 0.00 | 65 | 1010.8 |
| 20260504041903 | 42 | 295 | 1.0 | 2.0 | 0.00 | 0.00 | 0.00 | 66 | 1010.8 |
| 20260504041403 | 42 | 292 | 1.0 | 2.0 | 0.00 | 0.00 | 0.00 | 66 | 1010.9 |
| 20260504040903 | 42 | 286 | 1.0 | 2.0 | 0.00 | 0.00 | 0.00 | 67 | 1010.8 |
| 20260504040403 | 42 | 258 | 1.0 | 2.0 | 0.00 | 0.00 | 0.00 | 66 | 1010.7 |
| 20260504034406 | 43 | 310 | 2.0 | 5.0 | 0.00 | 0.00 | 0.00 | 64 | 1010.5 |
| 20260504033904 | 43 | 309 | 2.0 | 6.0 | 0.00 | 0.00 | 0.00 | 62 | 1010.5 |
| 20260504033404 | 43 | 306 | 2.0 | 3.0 | 0.00 | 0.00 | 0.00 | 60 | 1010.5 |
| 20260504032904 | 43 | 296 | 2.0 | 3.0 | 0.00 | 0.00 | 0.00 | 60 | 1010.5 |
| 20260504032403 | 43 | 296 | 2.0 | 2.0 | 0.00 | 0.00 | 0.00 | 59 | 1010.4 |
| 20260504031904 | 43 | 293 | 2.0 | 2.0 | 0.00 | 0.00 | 0.00 | 59 | 1010.4 |
| 20260504031403 | 43 | 288 | 2.0 | 2.0 | 0.00 | 0.00 | 0.00 | 58 | 1010.4 |
| 20260504030903 | 43 | 290 | 2.0 | 2.0 | 0.00 | 0.00 | 0.00 | 60 | 1010.3 |
| 20260504030404 | 43 | 294 | 2.0 | 3.0 | 0.00 | 0.00 | 0.00 | 57 | 1010.3 |
| 20260504025903 | 43 | 281 | 2.0 | 5.0 | 0.00 | 0.00 | 0.00 | 57 | 1010.2 |
| 20260504024904 | 43 | 299 | 1.0 | 2.0 | 0.00 | 0.00 | 0.00 | 58 | 1010.3 |
| 20260504024403 | 43 | 271 | 2.0 | 2.0 | 0.00 | 0.00 | 0.00 | 59 | 1010.4 |
| 20260504023903 | 43 | 287 | 2.0 | 2.0 | 0.00 | 0.00 | 0.00 | 57 | 1010.5 |
| 20260504023403 | 43 | 288 | 2.0 | 2.0 | 0.00 | 0.00 | 0.00 | 58 | 1010.4 |
| 20260504022903 | 43 | 286 | 2.0 | 3.0 | 0.00 | 0.00 | 0.00 | 58 | 1010.4 |
| 20260504022403 | 43 | 285 | 2.0 | 2.0 | 0.00 | 0.00 | 0.00 | 58 | 1010.4 |
| 20260504021403 | 43 | 274 | 2.0 | 2.0 | 0.00 | 0.00 | 0.00 | 58 | 1010.3 |
| 20260504020904 | 43 | 271 | 1.0 | 2.0 | 0.00 | 0.00 | 0.00 | 59 | 1010.2 |
| 20260504020403 | 43 | 262 | 1.0 | 2.0 | 0.00 | 0.00 | 0.00 | 59 | 1010.3 |
| 20260504015904 | 43 | 279 | 1.0 | 2.0 | 0.00 | 0.00 | 0.00 | 59 | 1010.3 |
| 20260504014904 | 44 | 288 | 1.0 | 2.0 | 0.00 | 0.00 | 0.00 | 57 | 1010.2 |
| 20260504014404 | 44 | 276 | 1.0 | 2.0 | 0.00 | 0.00 | 0.00 | 57 | 1010.2 |
| 20260504013903 | 44 | 269 | 2.0 | 2.0 | 0.00 | 0.00 | 0.00 | 57 | 1010.1 |
| 20260504013403 | 44 | 271 | 1.0 | 1.0 | 0.00 | 0.00 | 0.00 | 57 | 1010.0 |
| 20260504012903 | 45 | 274 | 1.0 | 2.0 | 0.00 | 0.00 | 0.00 | 55 | 1010.0 |
| 20260504011903 | 45 | 283 | 1.0 | 2.0 | 0.00 | 0.00 | 0.00 | 54 | 1009.9 |
| 20260504011403 | 46 | 279 | 1.0 | 2.0 | 0.00 | 0.00 | 0.00 | 53 | 1009.9 |
| 20260504010903 | 46 | 287 | 1.0 | 2.0 | 0.00 | 0.00 | 0.00 | 52 | 1009.8 |
| 20260504010403 | 46 | 289 | 1.0 | 2.0 | 0.00 | 0.00 | 0.00 | 52 | 1009.7 |
| 20260504005903 | 46 | 299 | 1.0 | 3.0 | 0.00 | 0.00 | 0.00 | 53 | 1009.6 |
| 20260504005403 | 46 | 277 | 2.0 | 3.0 | 0.00 | 0.00 | 0.00 | 49 | 1009.6 |
| 20260504004903 | 46 | 290 | 2.0 | 3.0 | 0.00 | 0.00 | 0.00 | 50 | 1009.6 |
| 20260504003904 | 46 | 265 | 2.0 | 3.0 | 0.00 | 0.00 | 0.00 | 52 | 1009.3 |
| 20260504002903 | 46 | 277 | 2.0 | 2.0 | 0.00 | 0.00 | 0.00 | 51 | 1009.2 |
| 20260504002404 | 46 | 296 | 1.0 | 1.0 | 0.00 | 0.00 | 0.00 | 50 | 1009.1 |
| 20260504001903 | 46 | 273 | 2.0 | 2.0 | 0.00 | 0.00 | 0.00 | 52 | 1009.0 |
| 20260504001404 | 47 | 279 | 3.0 | 5.0 | 0.00 | 0.00 | 0.00 | 50 | 1009.0 |
| 20260504000904 | 47 | 289 | 2.0 | 5.0 | 0.00 | 0.00 | 0.00 | 50 | 1008.9 |
| 20260504000404 | 47 | 281 | 3.0 | 5.0 | 0.00 | 0.00 | 0.00 | 49 | 1008.8 |
| 20260503235404 | 48 | 303 | 2.0 | 3.0 | 0.00 | 0.00 | 0.00 | 46 | 1008.7 |
| 20260503234903 | 49 | 289 | 2.0 | 5.0 | 0.00 | 0.00 | 0.00 | 46 | 1008.6 |
| 20260503234404 | 49 | 290 | 2.0 | 6.0 | 0.00 | 0.00 | 0.00 | 45 | 1008.6 |
| 20260503233903 | 49 | 315 | 2.0 | 7.0 | 0.00 | 0.00 | 0.00 | 44 | 1008.5 |
| 20260503233403 | 49 | 300 | 4.0 | 8.0 | 0.00 | 0.00 | 0.00 | 44 | 1008.5 |
| 20260503232903 | 50 | 315 | 5.0 | 9.0 | 0.00 | 0.00 | 0.00 | 43 | 1008.4 |
| 20260503231403 | 51 | 279 | 5.0 | 7.0 | 0.00 | 0.00 | 0.00 | 43 | 1008.4 |
| 20260503230904 | 51 | 287 | 5.0 | 9.0 | 0.00 | 0.00 | 0.00 | 43 | 1008.3 |
| 20260503230404 | 51 | 295 | 5.0 | 9.0 | 0.00 | 0.00 | 0.00 | 42 | 1008.3 |
| 20260503225404 | 51 | 284 | 4.0 | 7.0 | 0.00 | 0.00 | 0.00 | 44 | 1008.4 |
| 20260503224904 | 51 | 298 | 5.0 | 9.0 | 0.00 | 0.00 | 0.00 | 44 | 1008.3 |
| 20260503223904 | 52 | 296 | 3.0 | 9.0 | 0.00 | 0.00 | 0.00 | 42 | 1008.3 |
| 20260503222904 | 52 | 298 | 3.0 | 12.0 | 0.00 | 0.00 | 0.00 | 43 | 1008.3 |
| 20260503221903 | 52 | 295 | 5.0 | 8.0 | 0.00 | 0.00 | 0.00 | 43 | 1008.3 |
| 20260503221403 | 52 | 304 | 4.0 | 10.0 | 0.00 | 0.00 | 0.00 | 42 | 1008.3 |
| 20260503220404 | 53 | 313 | 6.0 | 10.0 | 0.00 | 0.00 | 0.00 | 42 | 1008.4 |
| 20260503215906 | 53 | 305 | 5.0 | 10.0 | 0.00 | 0.00 | 0.00 | 43 | 1008.4 |
| 20260503215403 | 53 | 294 | 5.0 | 10.0 | 0.00 | 0.00 | 0.00 | 42 | 1008.3 |
| 20260503214904 | 52 | 257 | 3.0 | 12.0 | 0.00 | 0.00 | 0.00 | 44 | 1008.4 |
| 20260503214404 | 52 | 294 | 8.0 | 12.0 | 0.00 | 0.00 | 0.00 | 44 | 1008.4 |
| 20260503213403 | 51 | 304 | 7.0 | 14.0 | 0.00 | 0.00 | 0.00 | 42 | 1008.2 |
| 20260503212403 | 52 | 301 | 8.0 | 15.0 | 0.00 | 0.00 | 0.00 | 45 | 1008.2 |
| 20260503211904 | 51 | 284 | 4.0 | 9.0 | 0.00 | 0.00 | 0.00 | 45 | 1008.3 |
| 20260503211404 | 51 | 287 | 7.0 | 12.0 | 0.00 | 0.00 | 0.00 | 45 | 1008.3 |
| 20260503210904 | 51 | 302 | 8.0 | 15.0 | 0.00 | 0.00 | 0.00 | 44 | 1008.4 |
| 20260503210404 | 51 | 350 | 4.0 | 15.0 | 0.00 | 0.00 | 0.00 | 45 | 1008.4 |
| 20260503205403 | 51 | 302 | 5.0 | 13.0 | 0.00 | 0.00 | 0.00 | 45 | 1008.3 |
| 20260503204904 | 52 | 300 | 4.0 | 10.0 | 0.00 | 0.00 | 0.00 | 45 | 1008.3 |
| 20260503204404 | 52 | 301 | 6.0 | 10.0 | 0.00 | 0.00 | 0.00 | 43 | 1008.3 |
| 20260503203904 | 52 | 305 | 6.0 | 17.0 | 0.00 | 0.00 | 0.00 | 44 | 1008.2 |
| 20260503202904 | 52 | 281 | 7.0 | 16.0 | 0.00 | 0.00 | 0.00 | 43 | 1008.3 |
| 20260503202404 | 52 | 288 | 9.0 | 17.0 | 0.00 | 0.00 | 0.00 | 44 | 1008.4 |
| 20260503201903 | 51 | 288 | 6.0 | 14.0 | 0.00 | 0.00 | 0.00 | 48 | 1008.4 |
| 20260503201404 | 51 | 282 | 11.0 | 21.0 | 0.00 | 0.00 | 0.00 | 44 | 1008.4 |
| 20260503200903 | 50 | 298 | 11.0 | 23.0 | 0.00 | 0.00 | 0.00 | 45 | 1008.4 |
| 20260503195903 | 50 | 314 | 12.0 | 17.0 | 0.00 | 0.00 | 0.00 | 43 | 1008.5 |
| 20260503195404 | 50 | 303 | 9.0 | 21.0 | 0.00 | 0.00 | 0.00 | 45 | 1008.5 |
| 20260503194904 | 50 | 295 | 10.0 | 23.0 | 0.00 | 0.00 | 0.00 | 44 | 1008.5 |
| 20260503194403 | 50 | 288 | 9.0 | 14.0 | 0.00 | 0.00 | 0.00 | 46 | 1008.5 |
| 20260503193404 | 50 | 286 | 9.0 | 20.0 | 0.00 | 0.00 | 0.00 | 45 | 1008.4 |
| 20260503191404 | 50 | 306 | 10.0 | 24.0 | 0.00 | 0.00 | 0.00 | 46 | 1008.5 |
| 20260503190904 | 50 | 291 | 7.0 | 21.0 | 0.00 | 0.00 | 0.00 | 48 | 1008.4 |
| 20260503190403 | 50 | 309 | 8.0 | 16.0 | 0.00 | 0.00 | 0.00 | 45 | 1008.5 |
| 20260503185903 | 50 | 303 | 8.0 | 25.0 | 0.00 | 0.00 | 0.00 | 46 | 1008.6 |
| 20260503184904 | 50 | 328 | 8.0 | 17.0 | 0.00 | 0.00 | 0.00 | 45 | 1008.5 |
| 20260503183904 | 50 | 278 | 11.0 | 21.0 | 0.00 | 0.00 | 0.00 | 47 | 1008.6 |
| 20260503182904 | 50 | 292 | 11.0 | 21.0 | 0.00 | 0.00 | 0.00 | 45 | 1008.7 |
| 20260503181904 | 50 | 309 | 7.0 | 13.0 | 0.00 | 0.00 | 0.00 | 46 | 1008.6 |
| 20260503181404 | 50 | 289 | 6.0 | 15.0 | 0.00 | 0.00 | 0.00 | 46 | 1008.6 |
| 20260503180903 | 50 | 308 | 7.0 | 16.0 | 0.00 | 0.00 | 0.00 | 45 | 1008.5 |
| 20260503180403 | 50 | 316 | 12.0 | 24.0 | 0.00 | 0.00 | 0.00 | 44 | 1008.5 |
| 20260503174404 | 50 | 301 | 12.0 | 18.0 | 0.00 | 0.00 | 0.00 | 44 | 1008.4 |
| 20260503173904 | 50 | 289 | 7.0 | 15.0 | 0.00 | 0.00 | 0.00 | 45 | 1008.4 |
| 20260503173404 | 50 | 320 | 10.0 | 18.0 | 0.00 | 0.00 | 0.00 | 46 | 1008.4 |
| 20260503172909 | 51 | 6 | 5.0 | 13.0 | 0.00 | 0.00 | 0.00 | 46 | 1008.4 |
| 20260503172403 | 51 | 301 | 6.0 | 13.0 | 0.00 | 0.00 | 0.00 | 46 | 1008.4 |
| 20260503171904 | 50 | 310 | 8.0 | 18.0 | 0.00 | 0.00 | 0.00 | 47 | 1008.4 |
| 20260503171404 | 50 | 304 | 6.0 | 9.0 | 0.00 | 0.00 | 0.00 | 48 | 1008.5 |
| 20260503170904 | 48 | 280 | 3.0 | 9.0 | 0.00 | 0.00 | 0.00 | 53 | 1008.5 |
| 20260503170404 | 47 | 336 | 9.0 | 18.0 | 0.00 | 0.00 | 0.00 | 50 | 1008.6 |
| 20260503150904 | 45 | 305 | 7.0 | 14.0 | 0.00 | 0.00 | 0.00 | 74 | 1009.0 |
| 20260503150404 | 46 | 299 | 7.0 | 16.0 | 0.00 | 0.00 | 0.00 | 70 | 1009.0 |